User: anonymous   Login
Location: Bas Lanzent
(48.1360°N, 3.5871°W)
Time: 17:56:59
(UTC+00:00)
Language:

STARLINK-1163 - Orbit

View from above orbital plane
View from above orbital plane
View from above satellite
View from above satellite

Ground track
Ground track

The orbit data is extracted from the following two-line orbital elements,

1 45069C 20006AB  20152.44956153  .00002813  00000-0  19263-3 0  1528
2 45069  53.0004  10.8759 0002055  80.9000 333.9588 15.05583572    18
Epoch (UTC): 31 May 2020 10:47:22
Eccentricity: 0.0002055
inclination: 53.0004°
perigee height: 548 km
apogee height: 551 km
right ascension of ascending node: 10.8759°
argument of perigee: 80.9000°
revolutions per day: 15.05583572
mean anomaly at epoch: 333.9588°
orbit number at epoch: 1

The dashed part of the orbit path shows where the satellite is in the earth's shadow,  

DLR